TimeCDT,TemperatureF,Dew PointF,Humidity,Sea Level PressureIn,VisibilityMPH,Wind Direction,Wind SpeedMPH,Gust SpeedMPH,PrecipitationIn,Events,Conditions,WindDirDegrees,DateUTC
12:56 AM,72.9,72.9,100,30.05,10.0,SE,3.5,-,N/A,,Clear,140,2013-08-23 05:56:00
1:56 AM,72.9,72.0,97,30.03,10.0,Calm,Calm,-,N/A,,Clear,0,2013-08-23 06:56:00
2:56 AM,72.9,70.9,93,30.03,10.0,Calm,Calm,-,N/A,,Clear,0,2013-08-23 07:56:00
3:56 AM,72.0,72.0,100,30.03,10.0,Calm,Calm,-,N/A,,Clear,0,2013-08-23 08:56:00
4:56 AM,72.0,70.9,96,30.04,10.0,Calm,Calm,-,N/A,,Clear,0,2013-08-23 09:56:00
5:56 AM,70.9,70.9,100,30.05,5.0,SSE,3.5,-,N/A,,Scattered Clouds,150,2013-08-23 10:56:00
6:56 AM,70.9,70.9,100,30.06,5.0,Calm,Calm,-,N/A,,Scattered Clouds,0,2013-08-23 11:56:00
7:56 AM,72.0,72.0,100,30.07,3.0,Calm,Calm,-,N/A,,Overcast,0,2013-08-23 12:56:00
8:03 AM,73.4,73.4,100,30.09,3.0,SSW,3.5,-,N/A,Thunderstorm,Mostly Cloudy,200,2013-08-23 13:03:00
8:56 AM,75.9,74.8,96,30.08,3.0,SW,4.6,-,N/A,Thunderstorm,Mostly Cloudy,220,2013-08-23 13:56:00
9:09 AM,77.0,75.2,94,30.10,3.0,Calm,Calm,-,N/A,,Mostly Cloudy,0,2013-08-23 14:09:00
9:56 AM,77.9,74.8,90,30.09,4.0,Variable,3.5,-,N/A,,Haze,0,2013-08-23 14:56:00
10:56 AM,82.9,75.9,79,30.08,4.0,NNE,4.6,-,N/A,,Haze,30,2013-08-23 15:56:00
11:56 AM,83.8,73.9,72,30.07,6.0,Variable,4.6,-,N/A,,Haze,0,2013-08-23 16:56:00
12:56 PM,84.9,73.9,69,30.07,6.0,NNE,9.2,-,N/A,,Haze,20,2013-08-23 17:56:00
1:56 PM,86.9,72.0,61,30.04,6.0,North,6.9,-,N/A,,Haze,360,2013-08-23 18:56:00
2:56 PM,88.0,72.0,59,30.02,6.0,NE,9.2,-,N/A,,Haze,40,2013-08-23 19:56:00
3:56 PM,88.9,68.9,51,30.01,6.0,NNE,8.1,-,N/A,,Haze,20,2013-08-23 20:56:00
4:56 PM,86.9,68.9,55,30.04,10.0,NE,6.9,-,N/A,,Scattered Clouds,40,2013-08-23 21:56:00
5:56 PM,86.9,68.0,53,30.03,10.0,NNE,8.1,-,N/A,,Partly Cloudy,20,2013-08-23 22:56:00
6:56 PM,83.8,72.0,67,30.04,10.0,East,5.8,-,N/A,,Clear,90,2013-08-23 23:56:00
7:56 PM,81.9,68.9,65,30.05,10.0,NE,3.5,-,N/A,,Partly Cloudy,40,2013-08-24 00:56:00
8:56 PM,79.9,66.9,64,30.08,10.0,NE,4.6,-,N/A,,Scattered Clouds,40,2013-08-24 01:56:00
9:56 PM,79.0,68.0,69,30.09,10.0,Calm,Calm,-,N/A,,Mostly Cloudy,0,2013-08-24 02:56:00
10:56 PM,77.0,68.9,76,30.10,10.0,NE,6.9,-,N/A,,Partly Cloudy,50,2013-08-24 03:56:00
11:56 PM,75.9,66.9,74,30.10,10.0,Calm,Calm,-,N/A,,Clear,0,2013-08-24 04:56:00